Location: Unspecified
(0.0000°N, 0.0000°E)
Time: 22:18:16
(UTC+02:00)

Ariane H10 - Visible Passes

Search period start: 01 October 2014 00:00
Search period end: 11 October 2014 00:00
Orbit: 299 x 24634 km, 3.9° (Epoch: 30 September)

Date Brightness Start Highest point End Pass type
(mag) Time Alt. Az. Time Alt. Az. Time Alt. Az.
01 Oct 8.5 00:00:00 61° W 01:13:05 74° WSW 01:13:05 74° WSW visible
01 Oct 8.5 16:51:20 10° W 17:28:38 86° N 22:40:39 49° E visible
02 Oct 3.2 06:36:36 23° W 06:42:20 74° S 06:45:26 10° E visible
02 Oct 6.0 22:23:31 10° W 04:03:47 31° E 04:06:16 10° E visible
03 Oct 8.4 19:07:30 10° W 00:44:55 83° SW 00:44:55 83° SW visible
04 Oct 8.1 16:20:08 10° W 16:48:08 85° N 22:12:34 39° E visible
05 Oct 3.6 06:07:31 38° WSW 06:11:16 76° S 06:14:56 10° E visible
05 Oct 6.6 21:40:55 10° W 03:34:36 16° E 03:35:28 10° E visible
06 Oct 8.4 18:34:33 10° W 00:06:25 85° S 00:16:37 82° SE visible
07 Oct 7.8 15:48:44 10° W 16:10:24 84° N 21:44:11 30° E visible
08 Oct 4.1 05:38:04 62° WSW 05:39:43 78° S 05:44:05 10° E visible
08 Oct 7.1 21:01:37 10° W 02:20:34 49° W 02:20:34 49° W visible
09 Oct 8.3 18:01:39 10° W 23:07:01 86° S 23:48:02 72° ESE visible
10 Oct 7.5 15:17:06 10° W 15:34:14 83° N 21:15:30 21° E visible
